Location: Azul
(36.7830°S, 59.8500°W)
Time: 21:03:59
(UTC-03:00)

ISS - Pass Details

Date: 14 February 2020
Orbit: 415 x 422 km, 51.6° (Epoch: 27 February)

Event Time Altitude Azimuth Distance (km) Brightness Sun altitude
Exits shadow 05:20:37 - 236° (SW) 1,817 -0.8 -13.5°
Reaches altitude 10° 05:21:22 10° 238° (WSW) 1,516 -1.2 -13.3°
Maximum altitude 05:24:42 54° 316° (NW) 522 -3.7 -12.7°
Drops below altitude 10° 05:28:00 10° 33° (NNE) 1,501 -0.9 -12.2°
Sets 05:30:06 0° 38° (NE) 2,359 0.2 -11.8°
